Overview Statistics Trail Chart Weather Telemetry Raw packets
 

This is the latest recevied weather packets stored in our database for station/object KC1TEM-13. If no packets are shown the sender has not sent any weather packets the latest 10 day(s).

<< 28 29 30 31 32 33 34 >>
Time Temp. Humidity Pressure Rain* Wind** Luminosity Snow
1788426359 16.67° C 97% 1016.8 hPa 0.51 mm - 0 W/m² -
1788426057 17.22° C 96% 1016.8 hPa 0 mm - 0 W/m² -
1788425755 17.22° C 95% 1016.9 hPa 0.51 mm - 0 W/m² -
1788425452 17.22° C 95% 1017 hPa 4.83 mm - 0 W/m² -
1788425149 17.22° C 93% 1016.7 hPa 9.65 mm - 0 W/m² -
1788424844 17.78° C 91% 1016.8 hPa 4.32 mm - 0 W/m² -
1788424540 17.78° C 90% 1016.9 hPa 0 mm - 0 W/m² -
1788424240 17.78° C 91% 1016.4 hPa 0 mm - 0 W/m² -
1788423934 17.78° C 93% 1016.3 hPa 0 mm - 0 W/m² -
1788423630 17.78° C 92% 1016.4 hPa 0 mm - 0 W/m² -
1788423325 17.78° C 92% 1016.4 hPa 0 mm - 0 W/m² -
1788423021 17.78° C 93% 1016.5 hPa 0 mm - 0 W/m² -
1788422717 17.22° C 94% 1016.7 hPa 0 mm - 0 W/m² -
1788422413 17.22° C 95% 1016.8 hPa 0 mm - 0 W/m² -
1788422108 17.22° C 95% 1017.1 hPa 0 mm - 0 W/m² -
1788421803 17.22° C 96% 1016.8 hPa 0 mm - 0 W/m² -
1788421502 17.22° C 96% 1017.1 hPa 0 mm - 0 W/m² -
1788421197 17.22° C 96% 1017.1 hPa 0 mm - 0 W/m² -
1788420892 17.22° C 96% 1017 hPa 0 mm - 0 W/m² -
1788420588 17.22° C 96% 1017 hPa 0 mm - 0 W/m² -
1788420284 17.22° C 96% 1017.2 hPa 0 mm - 0 W/m² -
1788419981 17.22° C 96% 1017.1 hPa 0 mm - 0 W/m² -
1788419676 17.22° C 96% 1017.1 hPa 0 mm - 0 W/m² -
1788419372 17.22° C 97% 1017.3 hPa 0 mm - 0 W/m² -
1788419072 17.22° C 97% 1017.4 hPa 0 mm - 0 W/m² -

* Rain latest hour (hover to see other rain measurements)
** Current wind speed in m/s (hover to see current wind gust speed)